NT2C Weather Reports


Display with metric or nautical units.
time (UTC)temp
F
wind
direction
speed
MPH
gust
MPH
rain 1hr
in
rain 24hr
in
rain mn
in
humidity
%
barometer
mb
20260508135506 59 284 1.0 4.0 0.00 0.02 0.00 55 1009.2
20260508135004 59 293 0.0 7.0 0.00 0.02 0.00 56 1009.2
20260508134504 58 272 2.0 7.0 0.00 0.02 0.00 56 1009.4
20260508134003 58 233 0.0 4.0 0.00 0.02 0.00 58 1009.3
20260508133505 57 229 0.0 5.0 0.00 0.02 0.00 61 1009.4
20260508133004 58 236 2.0 4.0 0.00 0.02 0.00 60 1009.4
20260508132503 57 271 0.0 3.0 0.00 0.02 0.00 64 1009.4
20260508132100 57 248 1.0 4.0 0.00 0.02 0.00 63 1009.4
20260508131558 56 217 0.0 4.0 0.00 0.02 0.00 65 1009.3
20260508131058 55 266 0.0 4.0 0.00 0.02 0.00 64 1009.4
20260508130555 55 256 0.0 2.0 0.00 0.02 0.00 65 1009.4
20260508130054 55 304 0.0 2.0 0.00 0.02 0.00 67 1009.4
20260508125553 54 230 0.0 2.0 0.00 0.02 0.00 68 1009.3
20260508125052 54 227 0.0 2.0 0.00 0.02 0.00 69 1009.4
20260508124558 53 235 0.0 5.0 0.00 0.02 0.00 69 1009.4
20260508124050 53 281 1.0 5.0 0.00 0.02 0.00 69 1009.4
20260508123548 53 257 0.0 2.0 0.00 0.02 0.00 73 1009.4
20260508123050 52 205 0.0 2.0 0.00 0.02 0.00 74 1009.3
20260508122544 52 314 0.0 2.0 0.00 0.02 0.00 75 1009.2
20260508122043 52 185 0.0 1.0 0.00 0.02 0.00 77 1008.9
20260508121542 51 226 0.0 2.0 0.00 0.02 0.00 79 1009.0
20260508121040 50 232 0.0 2.0 0.00 0.02 0.00 79 1009.1
20260508120538 50 229 0.0 2.0 0.00 0.02 0.00 80 1009.0
20260508120037 49 233 0.0 2.0 0.00 0.02 0.00 82 1008.8
20260508115536 48 231 0.0 2.0 0.00 0.02 0.00 84 1008.9
20260508115033 47 225 0.0 1.0 0.00 0.02 0.00 87 1008.8
20260508114536 47 273 0.0 1.0 0.00 0.02 0.00 89 1008.7
20260508114034 46 278 0.0 0.0 0.00 0.02 0.00 90 1008.6
20260508113533 45 278 0.0 1.0 0.00 0.02 0.00 90 1008.7
20260508113048 44 278 0.0 1.0 0.00 0.02 0.00 91 1008.7
20260508112532 43 278 0.0 0.0 0.00 0.02 0.00 91 1008.7
20260508112032 43 278 0.0 0.0 0.00 0.02 0.00 91 1008.6
20260508111532 42 278 0.0 0.0 0.00 0.02 0.00 91 1008.5
20260508111032 41 278 0.0 0.0 0.00 0.02 0.00 91 1008.3
20260508110532 41 278 0.0 0.0 0.00 0.02 0.00 91 1008.2
20260508110030 41 278 0.0 0.0 0.00 0.02 0.00 90 1008.2
20260508105529 40 278 0.0 0.0 0.00 0.02 0.00 91 1008.0
20260508105029 40 278 0.0 0.0 0.00 0.02 0.00 90 1008.0
20260508104528 40 278 0.0 0.0 0.00 0.02 0.00 90 1007.9
20260508104027 40 278 0.0 0.0 0.00 0.02 0.00 89 1007.7
20260508103527 40 278 0.0 0.0 0.00 0.02 0.00 89 1007.7
20260508103033 40 278 0.0 0.0 0.00 0.02 0.00 89 1007.5
20260508102530 40 278 0.0 0.0 0.00 0.02 0.00 89 1007.4
20260508102025 40 278 0.0 0.0 0.00 0.02 0.00 88 1007.3
20260508101529 40 278 0.0 0.0 0.00 0.02 0.00 88 1007.3
20260508101023 40 278 0.0 0.0 0.00 0.02 0.00 88 1007.3
20260508100521 41 278 0.0 0.0 0.00 0.02 0.00 88 1007.2
20260508100020 41 278 0.0 0.0 0.00 0.02 0.00 87 1007.2
20260508095519 41 278 0.0 0.0 0.00 0.02 0.00 87 1007.1
20260508095018 42 278 0.0 0.0 0.00 0.02 0.00 87 1007.0
20260508094517 42 278 0.0 0.0 0.00 0.02 0.00 87 1006.9
20260508094017 43 278 0.0 0.0 0.00 0.02 0.00 87 1007.0
20260508093517 43 278 0.0 0.0 0.00 0.02 0.00 88 1007.0
20260508093018 43 278 0.0 1.0 0.00 0.02 0.00 88 1007.0
20260508092517 43 288 0.0 1.0 0.00 0.02 0.00 89 1007.1
20260508092015 43 288 0.0 1.0 0.00 0.02 0.00 91 1007.1
20260508091525 43 288 0.0 1.0 0.00 0.02 0.00 91 1007.0
20260508091015 43 288 0.0 2.0 0.00 0.02 0.00 91 1007.0
20260508090514 43 288 0.0 2.0 0.00 0.02 0.00 92 1006.9
20260508090023 42 250 0.0 0.0 0.00 0.03 0.00 90 1006.9
20260508085513 42 250 0.0 0.0 0.00 0.03 0.00 90 1006.8
20260508085012 42 250 0.0 0.0 0.00 0.03 0.00 90 1006.7
20260508084512 42 250 0.0 0.0 0.00 0.03 0.00 90 1006.7
20260508084012 43 250 0.0 0.0 0.00 0.03 0.00 90 1006.6
20260508083509 43 250 0.0 0.0 0.00 0.03 0.00 90 1006.5
20260508083010 43 250 0.0 0.0 0.00 0.03 0.00 90 1006.5
20260508082508 43 250 0.0 1.0 0.00 0.03 0.00 89 1006.3
20260508082008 44 250 0.0 1.0 0.00 0.03 0.00 89 1006.3
20260508081509 44 279 0.0 0.0 0.00 0.03 0.00 88 1006.3
20260508081006 44 279 0.0 0.0 0.00 0.03 0.00 88 1006.3
20260508080507 45 279 0.0 0.0 0.00 0.03 0.00 88 1006.4
20260508080005 45 279 0.0 0.0 0.00 0.03 0.00 88 1006.2
20260508075505 46 279 0.0 0.0 0.00 0.03 0.00 88 1006.4
20260508075004 46 279 0.0 0.0 0.00 0.03 0.00 88 1006.2
20260508074504 46 279 0.0 0.0 0.00 0.03 0.00 87 1006.3
20260508074004 46 279 0.0 1.0 0.00 0.03 0.00 87 1006.3
20260508073502 47 279 0.0 1.0 0.00 0.03 0.00 87 1006.2
20260508073004 47 279 0.0 2.0 0.00 0.03 0.00 88 1006.1
20260508072502 47 288 0.0 2.0 0.00 0.03 0.00 89 1006.1
20260508072100 47 287 0.0 1.0 0.00 0.03 0.00 90 1006.1
20260508071600 47 289 0.0 2.0 0.00 0.03 0.00 91 1006.0
20260508071059 47 295 0.0 2.0 0.00 0.03 0.00 92 1006.0
20260508070559 46 291 0.0 2.0 0.00 0.03 0.00 92 1005.9
20260508070058 46 289 0.0 1.0 0.00 0.03 0.00 92 1005.8
20260508065557 46 289 0.0 0.0 0.00 0.03 0.00 92 1005.8
20260508065056 46 290 0.0 0.0 0.00 0.03 0.00 92 1005.7
20260508064557 47 290 0.0 0.0 0.00 0.03 0.00 92 1005.6
20260508064056 47 290 0.0 1.0 0.00 0.03 0.00 92 1005.5
20260508063556 47 290 0.0 1.0 0.00 0.03 0.00 92 1005.5
20260508063054 47 292 0.0 3.0 0.00 0.03 0.00 93 1005.3
20260508062555 47 293 0.0 3.0 0.00 0.03 0.00 93 1005.3
20260508062055 46 301 0.0 2.0 0.00 0.03 0.00 93 1005.2
20260508061553 46 299 0.0 2.0 0.00 0.03 0.00 93 1005.2
20260508061053 46 296 0.0 1.0 0.00 0.03 0.00 93 1005.1
20260508060552 45 276 0.0 1.0 0.00 0.03 0.00 93 1005.1
20260508060053 45 275 0.0 0.0 0.00 0.03 0.00 92 1005.1
20260508055551 45 276 0.0 0.0 0.00 0.05 0.00 92 1005.2
20260508055052 45 276 0.0 0.0 0.00 0.05 0.00 92 1005.2
20260508054551 45 275 0.0 1.0 0.00 0.05 0.00 92 1005.3
20260508054052 44 275 0.0 1.0 0.00 0.05 0.00 92 1005.2
20260508053550 44 221 0.0 0.0 0.00 0.05 0.00 91 1005.2
20260508053049 44 221 0.0 0.0 0.00 0.05 0.00 91 1005.2
20260508052552 44 221 0.0 0.0 0.00 0.05 0.00 91 1005.1
20260508052049 44 221 0.0 0.0 0.00 0.05 0.00 90 1005.1
20260508051547 45 221 0.0 0.0 0.00 0.05 0.00 90 1005.1
20260508051049 45 221 0.0 0.0 0.00 0.05 0.00 91 1005.0
20260508050545 45 221 0.0 0.0 0.00 0.05 0.00 90 1005.1
20260508050046 46 221 0.0 0.0 0.00 0.05 0.00 91 1005.1
20260508045544 46 221 0.0 0.0 0.00 0.07 0.00 91 1005.1
20260508045043 46 220 0.0 0.0 0.00 0.07 0.00 91 1005.1
20260508044542 46 220 0.0 0.0 0.00 0.07 0.00 91 1005.0
20260508044041 46 218 0.0 1.0 0.00 0.07 0.00 90 1005.0
20260508043540 46 219 0.0 1.0 0.00 0.07 0.00 90 1004.8
20260508043044 46 219 0.0 0.0 0.00 0.07 0.00 90 1004.8
20260508042539 46 219 0.0 1.0 0.00 0.07 0.00 90 1004.8
20260508042038 46 219 0.0 1.0 0.00 0.07 0.00 90 1004.7
20260508041537 47 219 0.0 1.0 0.00 0.07 0.00 90 1004.8
20260508041037 47 219 0.0 1.0 0.00 0.07 0.00 90 1004.7
20260508040536 47 229 0.0 0.0 0.00 0.07 0.00 89 1004.7
20260508040035 47 228 0.0 1.0 0.00 0.07 0.00 90 1004.5
20260508035536 47 228 0.0 1.0 0.00 0.07 0.07 90 1004.4
20260508035035 47 228 0.0 1.0 0.00 0.07 0.07 89 1004.4
20260508034534 47 229 0.0 1.0 0.00 0.07 0.07 89 1004.4
20260508034033 47 229 0.0 0.0 0.00 0.07 0.07 89 1004.4
20260508033533 47 229 0.0 0.0 0.00 0.07 0.07 89 1004.4
20260508033034 48 240 0.0 0.0 0.00 0.07 0.07 88 1004.4
20260508032533 48 240 0.0 0.0 0.00 0.07 0.07 88 1004.4
20260508032032 48 240 0.0 0.0 0.00 0.07 0.07 88 1004.4
20260508031530 48 240 0.0 1.0 0.00 0.07 0.07 88 1004.3
20260508031031 48 240 0.0 1.0 0.00 0.07 0.07 88 1004.3
20260508030529 49 202 0.0 0.0 0.00 0.07 0.07 88 1004.3
20260508030029 49 202 0.0 0.0 0.00 0.07 0.07 87 1004.2
20260508025528 49 202 0.0 0.0 0.00 0.07 0.07 87 1004.3
20260508025028 49 202 0.0 1.0 0.00 0.07 0.07 87 1004.2
20260508024535 49 202 0.0 1.0 0.00 0.07 0.07 86 1004.1
20260508024027 49 228 0.0 0.0 0.00 0.07 0.07 86 1004.2
20260508023527 50 228 0.0 0.0 0.00 0.07 0.07 86 1004.1
20260508023028 50 228 0.0 0.0 0.00 0.07 0.07 86 1004.1
20260508022527 50 228 0.0 1.0 0.00 0.07 0.07 86 1004.2
20260508022028 50 228 0.0 1.0 0.00 0.07 0.07 86 1004.2
20260508021532 50 229 0.0 1.0 0.00 0.07 0.07 85 1004.3
20260508021026 50 228 0.0 1.0 0.00 0.07 0.07 85 1004.2
20260508020524 50 195 0.0 0.0 0.00 0.07 0.07 85 1004.2
20260508020023 50 195 0.0 0.0 0.00 0.07 0.07 85 1004.1
20260508015522 50 195 0.0 0.0 0.00 0.07 0.07 84 1004.1
20260508015023 50 195 0.0 0.0 0.00 0.07 0.07 84 1004.2
20260508014521 51 195 0.0 0.0 0.00 0.07 0.07 83 1004.1
20260508014021 51 195 0.0 0.0 0.00 0.07 0.07 83 1004.2
20260508013521 51 195 0.0 0.0 0.00 0.07 0.07 82 1004.0
20260508013033 51 195 0.0 0.0 0.00 0.07 0.07 82 1003.9
20260508012520 51 193 0.0 0.0 0.00 0.07 0.07 82 1003.8
20260508012020 51 193 0.0 1.0 0.00 0.07 0.07 82 1003.8
20260508011520 52 228 0.0 1.0 0.00 0.07 0.07 81 1003.8
20260508011018 52 232 0.0 1.0 0.00 0.07 0.07 81 1003.8
20260508010516 52 232 0.0 1.0 0.00 0.07 0.07 81 1003.8
20260508010017 52 184 0.0 1.0 0.00 0.07 0.07 81 1003.6
20260508005518 52 236 0.0 1.0 0.00 0.07 0.07 81 1003.6
20260508005019 52 234 0.0 1.0 0.00 0.07 0.07 81 1003.4
20260508004529 53 220 0.0 2.0 0.00 0.07 0.07 80 1003.3
20260508004014 53 230 0.0 1.0 0.00 0.07 0.07 80 1003.2
20260508003512 53 232 0.0 3.0 0.00 0.07 0.07 79 1003.2
20260508003012 53 239 0.0 3.0 0.00 0.07 0.07 79 1003.2
20260508002511 54 235 0.0 3.0 0.00 0.07 0.07 79 1003.2
20260508002010 54 233 0.0 3.0 0.00 0.07 0.07 78 1003.2
20260508001516 54 229 1.0 4.0 0.00 0.07 0.07 78 1003.2
20260508001011 54 233 1.0 5.0 0.00 0.07 0.07 78 1003.1
20260508000513 55 243 1.0 5.0 0.00 0.07 0.07 77 1003.1
20260508000009 55 233 1.0 3.0 0.00 0.07 0.07 77 1003.0
20260507235510 55 237 1.0 3.0 0.00 0.07 0.07 76 1003.0
20260507235011 56 243 1.0 3.0 0.00 0.07 0.07 75 1002.9
20260507234509 56 247 1.0 6.0 0.00 0.07 0.07 75 1002.8
20260507234010 56 238 2.0 6.0 0.00 0.07 0.07 75 1002.7
20260507233509 57 226 1.0 5.0 0.00 0.07 0.07 74 1002.7
20260507233010 57 221 1.0 5.0 0.00 0.07 0.07 74 1002.6
20260507232510 57 214 1.0 5.0 0.00 0.07 0.07 74 1002.6
20260507232012 57 226 1.0 5.0 0.00 0.07 0.07 74 1002.6
20260507231509 57 240 2.0 5.0 0.00 0.07 0.07 73 1002.4
20260507231012 58 231 2.0 4.0 0.00 0.07 0.07 73 1002.4
20260507230510 58 178 1.0 5.0 0.00 0.07 0.07 73 1002.4
20260507230006 58 160 1.0 5.0 0.00 0.07 0.07 73 1002.3
20260507225507 58 199 1.0 7.0 0.00 0.07 0.07 73 1002.3
20260507225009 58 227 3.0 7.0 0.00 0.07 0.07 73 1002.3
20260507224506 58 233 3.0 7.0 0.00 0.07 0.07 73 1002.3
20260507224006 58 210 3.0 7.0 0.00 0.07 0.07 73 1002.2
20260507223506 58 227 3.0 7.0 0.00 0.07 0.07 73 1002.3
20260507223007 59 217 4.0 9.0 0.00 0.07 0.07 72 1002.2
20260507222505 59 191 2.0 8.0 0.00 0.07 0.07 72 1002.3
20260507222006 59 176 1.0 5.0 0.00 0.07 0.07 74 1002.5
20260507221512 58 233 0.0 5.0 0.00 0.07 0.07 74 1002.4
20260507221010 58 194 1.0 5.0 0.00 0.07 0.07 74 1002.3
20260507220507 58 213 0.0 6.0 0.00 0.07 0.07 74 1002.3
20260507220010 59 207 3.0 6.0 0.00 0.07 0.07 72 1002.2
20260507215504 59 231 2.0 6.0 0.00 0.07 0.07 71 1002.2
20260507215005 59 245 0.0 6.0 0.00 0.07 0.07 70 1002.2
20260507214506 59 130 0.0 6.0 0.00 0.07 0.07 71 1002.3
20260507214006 59 82 1.0 7.0 0.00 0.07 0.07 68 1002.2
20260507213509 59 229 0.0 7.0 0.00 0.07 0.07 68 1002.2
20260507213004 59 195 1.0 8.0 0.00 0.07 0.07 69 1002.3
20260507212504 59 241 3.0 8.0 0.00 0.07 0.07 68 1002.3
20260507212003 58 82 0.0 8.0 0.00 0.07 0.07 68 1002.4
20260507211504 58 215 2.0 8.0 0.00 0.07 0.07 69 1002.4
20260507211004 58 221 1.0 6.0 0.00 0.07 0.07 69 1002.3
20260507210502 58 231 1.0 7.0 0.00 0.07 0.07 71 1002.3
20260507210006 57 120 1.0 7.0 0.00 0.07 0.07 73 1002.3
20260507205503 57 200 2.0 8.0 0.00 0.07 0.07 73 1002.3
20260507205004 57 229 3.0 8.0 0.00 0.07 0.07 72 1002.4
20260507204502 57 162 1.0 6.0 0.00 0.07 0.07 72 1002.3
20260507204001 58 118 1.0 9.0 0.00 0.07 0.07 73 1002.2
20260507203502 58 174 2.0 9.0 0.00 0.07 0.07 72 1002.3
20260507203103 58 151 0.0 7.0 0.00 0.07 0.07 73 1002.4
20260507203001 58 136 1.0 7.0 0.00 0.07 0.07 73 1002.4
20260507202503 58 148 1.0 5.0 0.00 0.07 0.07 73 1002.4
20260507202100 58 135 1.0 5.0 0.00 0.07 0.07 74 1002.4
20260507201608 57 199 1.0 5.0 0.00 0.07 0.07 73 1002.4
20260507201102 57 195 2.0 6.0 0.00 0.07 0.07 72 1002.5
20260507200600 56 192 1.0 6.0 0.00 0.07 0.07 70 1002.4
20260507200059 56 231 2.0 6.0 0.00 0.07 0.07 70 1002.4
20260507195559 56 220 1.0 6.0 0.00 0.07 0.07 70 1002.5
20260507195101 56 216 2.0 7.0 0.00 0.07 0.07 71 1002.6
20260507194635 57 218 3.0 7.0 0.00 0.07 0.07 69 1002.7
20260507194059 57 146 2.0 6.0 0.00 0.07 0.07 69 1002.8
20260507193559 57 151 1.0 6.0 0.01 0.07 0.07 68 1002.9
20260507193059 57 124 0.0 4.0 0.01 0.07 0.07 68 1002.7
20260507192558 57 102 0.0 2.0 0.02 0.07 0.07 68 1002.5
20260507192058 57 113 0.0 2.0 0.02 0.07 0.07 68 1002.4
20260507191558 57 101 0.0 4.0 0.02 0.07 0.07 71 1002.7
20260507191057 57 118 1.0 4.0 0.02 0.07 0.07 71 1002.4
20260507190559 57 120 1.0 8.0 0.02 0.07 0.07 72 1002.5
20260507190058 56 169 0.0 8.0 0.02 0.07 0.07 73 1003.0
20260507185557 56 231 1.0 4.0 0.02 0.07 0.07 76 1003.2
20260507185057 56 118 0.0 1.0 0.02 0.07 0.07 74 1003.3
20260507184605 55 25 0.0 0.0 0.02 0.07 0.07 74 1003.2
20260507184058 55 24 0.0 2.0 0.02 0.07 0.07 71 1003.4
20260507183556 55 46 0.0 4.0 0.01 0.06 0.06 70 1003.3
20260507183057 55 44 1.0 4.0 0.01 0.06 0.06 65 1003.6
20260507182557 56 99 0.0 3.0 0.00 0.05 0.05 65 1003.4
20260507182058 56 54 0.0 3.0 0.00 0.05 0.05 63 1003.8
20260507181557 57 141 0.0 2.0 0.00 0.05 0.05 66 1003.6
20260507181056 57 128 0.0 4.0 0.00 0.05 0.05 63 1003.5
20260507180559 57 80 1.0 4.0 0.00 0.05 0.05 65 1003.4
20260507175558 57 51 1.0 4.0 0.00 0.05 0.05 61 1003.7
20260507175055 56 122 0.0 4.0 0.00 0.05 0.05 62 1003.8
20260507174556 56 128 0.0 4.0 0.00 0.05 0.05 62 1003.8
20260507174054 56 22 1.0 4.0 0.00 0.05 0.05 60 1003.5
20260507173554 56 113 0.0 3.0 0.00 0.05 0.05 63 1003.5
20260507173055 56 61 0.0 2.0 0.00 0.05 0.05 64 1003.6
20260507172557 56 122 0.0 5.0 0.00 0.05 0.05 67 1004.0
20260507172054 56 324 1.0 5.0 0.00 0.05 0.05 64 1003.9
20260507171553 55 55 0.0 5.0 0.00 0.05 0.05 62 1004.2
20260507171054 55 11 2.0 5.0 0.00 0.05 0.05 66 1004.1
20260507170553 55 77 0.0 5.0 0.00 0.05 0.05 68 1004.1
20260507170053 55 345 2.0 5.0 0.00 0.05 0.05 69 1004.1
20260507165553 55 64 1.0 5.0 0.00 0.05 0.05 68 1004.1
20260507165051 55 72 0.0 4.0 0.00 0.05 0.05 69 1004.3
20260507164555 55 354 1.0 4.0 0.00 0.05 0.05 69 1004.4
20260507164051 55 351 1.0 4.0 0.00 0.05 0.05 68 1004.5
20260507163553 55 300 0.0 3.0 0.00 0.05 0.05 66 1004.9
20260507163051 56 8 0.0 3.0 0.00 0.05 0.05 67 1004.6
20260507162551 56 358 0.0 4.0 0.00 0.05 0.05 66 1004.6
20260507162051 56 259 1.0 4.0 0.00 0.05 0.05 66 1004.7
20260507161553 56 99 0.0 5.0 0.00 0.05 0.05 68 1004.7
20260507161051 56 59 1.0 5.0 0.00 0.05 0.05 68 1004.5
20260507160550 55 136 1.0 6.0 0.00 0.05 0.05 68 1004.5
20260507160051 55 15 2.0 6.0 0.00 0.05 0.05 67 1004.7
20260507155549 55 316 0.0 7.0 0.00 0.06 0.05 67 1004.8
20260507155053 55 61 2.0 7.0 0.00 0.06 0.05 67 1004.8
20260507154650 56 47 3.0 7.0 0.00 0.06 0.05 66 1004.9
20260507154050 56 50 2.0 11.0 0.00 0.06 0.05 65 1004.7
20260507153549 56 40 2.0 8.0 0.00 0.06 0.05 65 1004.8
20260507153049 56 56 3.0 6.0 0.00 0.06 0.05 65 1004.7
20260507152552 56 59 1.0 6.0 0.00 0.06 0.05 67 1004.7
20260507152049 56 75 1.0 9.0 0.00 0.06 0.05 67 1004.9
20260507151547 56 58 3.0 9.0 0.00 0.06 0.05 67 1004.8
20260507151048 56 65 1.0 8.0 0.00 0.06 0.05 68 1004.7
20260507150547 56 93 2.0 8.0 0.00 0.06 0.05 69 1004.7
20260507150047 56 55 3.0 7.0 0.00 0.06 0.05 69 1004.6
20260507145546 56 67 1.0 4.0 0.00 0.11 0.05 71 1004.6
20260507145046 56 58 1.0 4.0 0.00 0.11 0.05 71 1004.9
20260507144546 56 41 1.0 4.0 0.00 0.11 0.05 72 1005.0
20260507144046 56 342 1.0 7.0 0.00 0.11 0.05 72 1005.2
20260507143546 56 35 0.0 7.0 0.00 0.11 0.05 72 1005.3
20260507143046 56 301 1.0 5.0 0.00 0.11 0.05 71 1005.4
20260507142546 56 57 2.0 10.0 0.00 0.11 0.05 72 1005.2
20260507142044 56 47 4.0 10.0 0.00 0.11 0.05 71 1005.2
20260507141545 56 31 1.0 6.0 0.00 0.11 0.05 72 1005.3
20260507141044 56 15 2.0 8.0 0.00 0.11 0.05 72 1005.1
20260507140543 56 30 3.0 8.0 0.00 0.11 0.05 71 1005.4
20260507140043 56 6 2.0 7.0 0.00 0.11 0.05 70 1005.6